Zurück zum Katalog

EUTE 33A

EB 3

AktivKommunikationGEO
NORAD 27948·PAYLOAD·🇪🇺 EU

Gestartet Sep 27, 2003 von Guiana Space Centre

Loading…

TLE

AktuellSource: Space-Track

Epoche: Sep 14, 2026, 14:02 UTC

1 27948U 03043A   26257.58506772  .00000042  00000-0  00000-0 0  9998
2 27948   9.9469  54.7268 0005297 188.1731  11.9867  0.98883406 45943

Verfolge EUTE 33A in Echtzeit mit AllMySat

Download on the App Store